OE1TRI Weather Reports


Display with metric or nautical units.
time (UTC)temp
F
wind
direction
speed
MPH
gust
MPH
rain 1hr
in
rain 24hr
in
rain mn
in
humidity
%
barometer
mb
20260503035004 51 50 1.0 2.0 0.00 0.00 0.00 73 1025.1
20260503034005 51 67 0.0 0.0 0.00 0.00 0.00 72 1025.1
20260503032005 51 65 0.0 1.0 0.00 0.00 0.00 73 1024.7
20260503025004 51 54 0.0 3.0 0.00 0.00 0.00 72 1024.7
20260503024005 52 56 0.0 1.0 0.00 0.00 0.00 71 1024.7
20260503023004 52 73 1.0 2.0 0.00 0.00 0.00 71 1024.7
20260503022005 53 60 1.0 2.0 0.00 0.00 0.00 72 1024.7
20260503021005 53 104 2.0 3.0 0.00 0.00 0.00 69 1024.7
20260503020004 53 71 1.0 3.0 0.00 0.00 0.00 67 1024.7
20260503015005 53 60 0.0 0.0 0.00 0.00 0.00 68 1024.4
20260503012005 52 70 0.0 0.0 0.00 0.00 0.00 68 1024.7
20260503011005 53 66 0.0 0.0 0.00 0.00 0.00 67 1024.7
20260503010005 53 67 0.0 0.0 0.00 0.00 0.00 66 1024.7
20260503003005 54 71 0.0 0.0 0.00 0.00 0.00 65 1024.4
20260503001005 54 70 0.0 0.0 0.00 0.00 0.00 64 1024.7
20260503000004 55 68 0.0 0.0 0.00 0.00 0.00 63 1024.7
20260502235005 55 65 0.0 0.0 0.00 0.00 0.00 62 1024.7
20260502234005 55 69 0.0 0.0 0.00 0.00 0.00 61 1024.7
20260502233005 56 53 0.0 0.0 0.00 0.00 0.00 60 1025.1
20260502232005 56 58 0.0 0.0 0.00 0.00 0.00 58 1025.1
20260502230004 57 76 0.0 1.0 0.00 0.00 0.00 57 1025.1
20260502223005 58 65 1.0 2.0 0.00 0.00 0.00 54 1025.4
20260502220005 59 255 2.0 2.0 0.00 0.00 0.00 53 1025.4
20260502215004 59 82 1.0 2.0 0.00 0.00 0.00 53 1025.4
20260502214004 59 49 0.0 1.0 0.00 0.00 0.00 53 1025.4
20260502212005 59 253 1.0 1.0 0.00 0.00 0.00 52 1025.4
20260502211005 60 64 0.0 1.0 0.00 0.00 0.00 52 1025.4
20260502205005 60 227 2.0 3.0 0.00 0.00 0.00 51 1025.7
20260502204004 61 98 1.0 2.0 0.00 0.00 0.00 51 1025.7
20260502203004 61 87 1.0 2.0 0.00 0.00 0.00 50 1025.7
20260502202005 61 94 0.0 1.0 0.00 0.00 0.00 50 1025.7
20260502201005 61 159 1.0 1.0 0.00 0.00 0.00 51 1026.1
20260502200005 61 124 1.0 1.0 0.00 0.00 0.00 50 1026.0
20260502195005 62 144 1.0 2.0 0.00 0.00 0.00 49 1025.7
20260502193005 64 94 0.0 1.0 0.00 0.00 0.00 48 1025.7
20260502191004 65 203 1.0 2.0 0.00 0.00 0.00 45 1025.7
20260502190005 65 33 1.0 2.0 0.00 0.00 0.00 44 1025.7
20260502183005 69 83 0.0 1.0 0.00 0.00 0.00 36 1025.7
20260502182005 70 62 0.0 2.0 0.00 0.00 0.00 33 1025.4
20260502181004 71 121 1.0 2.0 0.00 0.00 0.00 33 1025.4
20260502164005 75 15 5.0 6.0 0.00 0.00 0.00 32 1025.4
20260502162005 76 78 3.0 6.0 0.00 0.00 0.00 31 1025.7
20260502161005 74 22 5.0 7.0 0.00 0.00 0.00 32 1026.1
20260502151005 77 75 0.0 5.0 0.00 0.00 0.00 31 1026.4
20260502122005 77 100 3.0 8.0 0.00 0.00 0.00 32 1028.1
20260502121005 77 12 2.0 6.0 0.00 0.00 0.00 32 1028.4
20260502115005 77 164 3.0 3.0 0.00 0.00 0.00 32 1028.8
20260502114005 76 60 1.0 3.0 0.00 0.00 0.00 33 1029.1
20260502113005 76 64 2.0 5.0 0.00 0.00 0.00 32 1029.1
20260502112004 76 83 0.0 1.0 0.00 0.00 0.00 32 1029.1
20260502110005 76 96 2.0 8.0 0.00 0.00 0.00 34 1029.1
20260502105005 74 122 3.0 6.0 0.00 0.00 0.00 34 1029.1
20260502104005 75 134 5.0 6.0 0.00 0.00 0.00 32 1029.5
20260502103005 76 6 1.0 5.0 0.00 0.00 0.00 31 1029.5
20260502102004 73 78 1.0 8.0 0.00 0.00 0.00 33 1029.8
20260502101005 75 29 2.0 9.0 0.00 0.00 0.00 32 1029.8
20260502070005 63 60 0.0 2.0 0.00 0.00 0.00 53 1031.5
20260502064005 64 65 1.0 1.0 0.00 0.00 0.00 52 1031.2
20260502062004 62 89 1.0 2.0 0.00 0.00 0.00 55 1031.2
20260502060005 61 58 0.0 1.0 0.00 0.00 0.00 55 1031.2
20260502053004 58 72 0.0 1.0 0.00 0.00 0.00 59 1031.2
20260502052005 57 87 1.0 2.0 0.00 0.00 0.00 60 1031.2
20260502051005 58 334 2.0 2.0 0.00 0.00 0.00 60 1031.2
20260502050005 59 73 0.0 1.0 0.00 0.00 0.00 56 1031.2
20260502045005 57 66 0.0 0.0 0.00 0.00 0.00 58 1031.2
20260502043004 53 71 0.0 0.0 0.00 0.00 0.00 68 1030.8
20260502042005 51 70 0.0 0.0 0.00 0.00 0.00 70 1031.2
20260502041005 51 74 0.0 0.0 0.00 0.00 0.00 71 1030.8
20260502040005 51 62 0.0 0.0 0.00 0.00 0.00 71 1030.8